Regional Weather Roundup
Issued by NWS

Home | Current Version | Previous Version | Text Only | Print | Product List | Glossary On
Versions: 1 2 3 4 5 6 7 8 9 10 11 12 13 14 15 16 17 18 19 20 21 22 23 24 25 26 27 28 29 30 31 32 33 34 35 36 37 38 39 40 41 42 43 44 45 46 47 48 49 50
000
ASHW40 PHFO 221613
RWRHI

WEATHER ROUNDUP FOR HAWAII
NATIONAL WEATHER SERVICE HONOLULU HI
600 AM HST WED FEB 22 2017

THIS IS AN AUTOMATED REPORT THAT HAS NOT BEEN QUALITY CONTROLLED.

NOTE..."FAIR" INDICATES FEW OR NO CLOUDS BELOW 12,000 FEET WITH NO
SIGNIFICANT WEATHER AND/OR OBSTRUCTIONS TO VISIBILITY.

* - THESE SITES REPORT LIMITED FIELDS

HIZ001>004-221700-
KAUAI-NIIHAU-

CITY           SKY/WX    TMP DP  RH WIND       PRES   REMARKS
LIHUE APT      PTCLDY    70  59  68 NE21      30.26R
PORT ALLEN*      N/A     70 N/A N/A NE13G23     N/A
POIPU*           N/A     70 N/A N/A NE8G18      N/A
PRINCEVILLE*     N/A     70 N/A N/A E9G15       N/A
KOKOLE POINT*  NOT AVBL
MOLOAA DAIRY*    N/A     68  57  68 E3G13       N/A
WAIMEA HTS*    NOT AVBL
PUU OPAE*      NOT AVBL
PUU LUA*       NOT AVBL
MAKAHA RIDGE*  NOT AVBL
$$

HIZ005>011-221700-
OAHU-

CITY           SKY/WX    TMP DP  RH WIND       PRES   REMARKS
HONOLULU       PTCLDY    71  57  61 E16       30.21R
KALAELOA       LGT RAIN  70  58  65 E6        30.23R
KANEOHE MCB    MOCLDY    73  61  65 E13G23    30.21R
WHEELER FIELD  PTCLDY    62  57  84 CALM      30.22R
BELLOWS*       NOT AVBL
KAHUKU*        NOT AVBL
WHEELER*       NOT AVBL
WAIANAE HARBOR NOT AVBL
DILLINGHAM*    NOT AVBL
KAHUKU TRN*      N/A     68  57  68 W12G21      N/A
KAWAILOA*        N/A     64  57  77 E16G29      N/A
KII*             N/A     72  61  68 E21G26      N/A
MAKUA RANGE*     N/A     72  57  60 W14G22      N/A
OAHU FOREST NW NOT AVBL
SCHOFIELD BRK*   N/A     64  57  77 S1          N/A
SCHOFIELD S*   NOT AVBL
WAIANAE VLY*   NOT AVBL
KUAOKALA*      NOT AVBL
HONOULIUULI*   NOT AVBL
MOKUOLOE IS*   NOT AVBL
PALEHUA*       NOT AVBL
WAIAWA PHB*    NOT AVBL
$$

HIZ012>013-221700-
MOLOKAI-

CITY           SKY/WX    TMP DP  RH WIND       PRES   REMARKS
MOLOKAI AIRPT  CLEAR     71  56  58 NE14G25   30.22R
KALAUPAPA      NOT AVBL
MAKAPULAPAI*   NOT AVBL
MOLOKAI 1*     NOT AVBL
PUU ALII*      NOT AVBL
$$

HIZ016-221700-
KAHOOLAWE-

CITY           SKY/WX    TMP DP  RH WIND       PRES   REMARKS
KAHOOLAWE*     NOT AVBL
HAKIOAWA*      NOT AVBL
HONOKANAIA*      N/A     72  58  60 N15G26    30.12S
KANELOA*         N/A     70  59  68 NE14G29   30.24R
KEALIALALO*    NOT AVBL
LUA MAKIKA*    NOT AVBL
$$

HIZ014>015-221700-
LANAI-

CITY           SKY/WX    TMP DP  RH WIND       PRES   REMARKS
LANAI CITY       N/A     64  56  75 NE25G33   30.22S
LANAI 1*       NOT AVBL
$$

HIZ017>028-221700-
MAUI-

CITY           SKY/WX    TMP DP  RH WIND       PRES   REMARKS
KAHULUI        CLEAR     69  57  65 NE10      30.21R
KAPALUA-W MAUI NOT AVBL
HANA AIRPORT   CLOUDY    72  59  64 NE8       30.27R
HANA*            N/A     72 N/A N/A NE10        N/A
HALEAKALA SUMM   N/A     36  14  41 NE9         N/A  WCI  29
MAALAEA BAY*   NOT AVBL
HALEAKALA*     NOT AVBL
KAUPO GAP*     NOT AVBL
KULA 1*          N/A    N/A N/A N/A E7          N/A
$$

HIZ023>026-221700-
BIG ISLAND OF HAWAII COAST AND LOWER SLOPES-

CITY           SKY/WX    TMP DP  RH WIND       PRES   REMARKS
KAILUA KONA    CLEAR     68  60  75 NE7       30.13R
HILO           CLOUDY    71  60  68 E9        30.22R
HONOKAA*         N/A     63 N/A N/A VRB1        N/A
KAWAIHAE MWT*    N/A     70 N/A N/A E2          N/A
KAWAIHAE*      NOT AVBL
SOUTH POINT*     N/A     66 N/A N/A N15G24      N/A
UPOLU AIRPORT* NOT AVBL
KAMUELA*       CLOUDY    57  55  94 NE21G32   30.24R
HAKALAU*         N/A     45  45 100 VRB1        N/A
KALOKO-HONOKO* NOT AVBL
PALI 2*          N/A     57  52  82 S24G40      N/A
KEALAKOMO*       N/A     72  57  60 VRB22G30    N/A
KAUPULEHU*     NOT AVBL
KAPAPALA*        N/A     51  49  92 NW6         N/A
LOWER KAHUKU*  NOT AVBL
PUHE CS*       NOT AVBL
PUHO CS*       NOT AVBL
PTA KEAMUKU*     N/A     54  48  82 CALM        N/A
WAIKOLOA*      NOT AVBL
$$

HIZ027>028-221700-
BIG ISLAND OF HAWAII INTERIOR AND SUMMMITS-

CITY           SKY/WX    TMP DP  RH WIND       PRES   REMARKS
BRADSHAW FIELD CLEAR     43  42  94 SE7       30.40R
MK VISITOR CEN   N/A     41   1  19 NE9         N/A
MAUNA KEA*       N/A     19 -13  23 E5          N/A  WCI  13
MAUNA LOA*       N/A    N/A N/A N/A MISG        N/A
MAUNA LOA 1*   NOT AVBL
PTA KIPUKA*      N/A     41  34  75 SE7         N/A
PTA RANGE 17*    N/A     46  39  76 E12G22      N/A
PTA WEST*        N/A     68  55  64 E16G26      N/A
NENE CABIN*    NOT AVBL
AHUMOA*        NOT AVBL
PTA PORTABLE*  NOT AVBL
PUU MALI*        N/A     45  43  93 E18G26      N/A
$$

HIC003-221700-
NORTHWEST ISLANDS-

CITY           SKY/WX    TMP DP  RH WIND       PRES   REMARKS
MIDWAY ISLAND  PTCLDY    72  68  88 S17       30.13S
MIDWAY NOS*    NOT AVBL
FRENCH FRIGATE NOT AVBL
$$

PHZ110>124-180-221700-
BUOY REPORTS

STATION/POSITION TIME  TEMP    WIND        PRES    WAVE   SWELL
                       AIR SEA DIR/SP/G            HT/PER HT/DIR
                 (UTC) (F)     (DEG/KT/KT) (MB)    (FT/S) (FT/D)
BUOY 51001       1550   70 72   70/ 17/ 19 1026.3R   7/ 8   3/350
BUOY 51101       1550   71 72   70/ 16/ 19 1026.7R   7/ 7   3/ 80
BUOY 51100       NOT AVBL
BUOY 51002       1550   76 77   60/ 23/ 27 1019.4R  11/ 8
BUOY 51003       1550   75 77   50/ 17/ 21 1020.8R   9/ 8   5/ 90
BUOY 51004       1550      77   40/ 25/ 31 1018.9R  11/ 8   5/ 90
BARBERS PT BUOY  NOT AVBL
WAIMEA BAY BUOY  1502      74                N/A     6/10   2/340
KAILUA BAY BUOY  1534      75                N/A     8/ 7   2/ 20
LANAI BUOY       1545      76                N/A     2/11   2/260
BARBERS PT 2     NOT AVBL
PAUWELA MAUI     1539      75                N/A     8/ 7   2/350
HILO             1542      76                N/A     8/ 8   2/360
KANEOHE BAY BUOY 1506      75                N/A     8/ 7   2/ 20
HANALEI KAUAI    1552      76                N/A     8/ 7   2/ 10
KAHULUI HARBOR   1542   72 74   50/ 13/ 17 1023.2R
HONOLULU HARBOR  1548   72 75   70/  7/ 14 1023.8R
KILO NALU        NOT AVBL
HILO HARBOR      1548   72 75   50/ 10/ 15 1023.0R
MOKUOLOE         1536   73 73  100/ 14/ 18 1023.6R
NAWILIWILI       1548   71      30/ 12/ 16 1024.2R
WHOTS BUOY       NOT AVBL
BUOY 51028       NOT AVBL
$$

......................KEY........................................
  SKY/WX - SKY CONDITIONS/PRESENT WEATHER
  TMP    - TEMPERATURE IN FAHRENHEIT
  DWPT   - DEWPOINT IN FAHRENHEIT
  RH     - RELATIVE HUMIDITY IN PERCENT
  WIND   - DIRECTION AND SPEED /MPH FOR ISLANDS...KTS FOR BUOYS/
  PRES   - MEAN SEA LEVEL PRESSURE IN INCHES OF HG
  VSB    - VISIBILITY IN MILES
  HX     - HEAT INDEX
  WCI    - WIND CHILL INDEX
  VRB    - VARIABLE WIND DIRECTION
  N/A    - NOT AVAILABLE



USA.gov is the U.S. government's official web portal to all federal, state and local government web resources and services.